Other Public Products
Issued by NWS Grand Forks, ND

Home | Current Version | Previous Version | Text Only | Print | Product List | Glossary Off
Versions: 1 2 3 4 5 6 7 8 9 10 11 12 13 14 15 16 17 18 19 20 21 22 23 24 25 26 27 28 29 30 31 32 33 34 35 36 37 38 39 40 41 42 43 44 45 46 47 48 49 50

000
FPUS83 KFGF 011710
OPUFGF
PRAIRIE TO PINES WEATHER ROUNDUP
NATIONAL WEATHER SERVICE EASTERN NORTH DAKOTA/GRAND FORKS ND
1100 AM CST SUN FEB 01 2015

 **SATELLITE DATA USED TO AUGMENT SKY COVER AT AUTOMATED STATIONS**
 *****  WEATHER ACROSS EASTERN NORTH DAKOTA  *****

CITY           SKY/WX    TMP DP  RH WIND       PRES   REMARKS
GRAND FORKS    MOSUNNY   -6 -17  59 N10       30.58F WCI -24
GRAND FORKS AF SUNNY     -6 -19  54 N8        30.57F WCI -22
GRAND CITY NWS   N/A     -6 N/A N/A VRB7        N/A  WCI -20
BUXTON         NOT AVBL
DEVILS LAKE    SUNNY     -9 -20  59 NW7       30.50R WCI -24
FARGO          SUNNY     -2 -13  59 N17       30.53R WCI -23
WAHPETON ARPT  FAIR       0 -13  55 N17G23    30.47S WCI -21
$$

 *****  WEATHER ACROSS CENTRAL AND WESTERN NORTH DAKOTA  *****

CITY           SKY/WX    TMP DP  RH WIND       PRES   REMARKS
JAMESTOWN      SUNNY     -4 -16  56 N12       30.48F WCI -22
BISMARCK       SUNNY     -3 -15  56 NW7       30.53R WCI -16
MINOT          SUNNY     -4 -15  59 W8        30.50R WCI -19
MINOT AFB      SUNNY     -5 -13  67 W5        30.49F WCI -16
GARRISON         N/A     -6 -15  65 NW6       30.48F WCI -19
WILLISTON      SUNNY     -4 -10  75 SW5       30.47F WCI -15
DICKINSON      SUNNY     -6 -11  79 W5        30.39S WCI -17
HETTINGER      SUNNY     -1  -6  79 NW10      30.40F WCI -17
$$

 *****  OTHER OBSERVATIONS NORTHEAST NORTH DAKOTA  *****

CITY           SKY/WX    TMP DP  RH WIND       PRES   REMARKS
WALHALLA         N/A     -8 -18  59 W6        30.57S WCI -21
LANGDON        NOT AVBL
CAVALIER       FAIR      -8 -17  65 W5        30.58S WCI -19
GRAFTON        NOT AVBL
CANDO          FAIR      -8 -18  59 W7        30.52S WCI -22
FORT TOTTEN      N/A     -6 -19  53 N2        29.95S
ROLLA          FAIR      -6 -18  54 NW5       30.47R WCI -17
RUGBY          FAIR      -9 -18  64 NW9       30.51S WCI -27
 ***** THE ABOVE OBSERVATIONS ARE NON NWS ARE NOT QUALITY
        CONTROLLED AND MAY MIS-REPORT RAIN FOR SNOW...
$$

 *****  OTHER OBSERVATIONS SOUTHEAST NORTH DAKOTA *****

CITY           SKY/WX    TMP DP  RH WIND       PRES   REMARKS
COOPERSTOWN    NOT AVBL
VALLEY CITY    FAIR      -4 -17  54 N13G18    30.49S WCI -23
OAKES            N/A      0 -11  60 N21       30.47S WCI -23
GWINNER        SUNNY      0 -11  60 N20       30.48R WCI -22
SHEYENNE NWR     N/A     -4 -17  53 N12       29.95S WCI -22
BUFFALO        NOT AVBL
WYNDMERE         N/A     -2 -15  55 VRB15       N/A  WCI -22
 ***** THE ABOVE OBSERVATIONS ARE NON NWS ARE NOT QUALITY
       CONTROLLED AND MAY MIS-REPORT RAIN FOR SNOW...
$$

  *****  WEATHER ACROSS NORTHERN MINNESOTA  *****

CITY           SKY/WX    TMP DP  RH WIND       PRES   REMARKS
FLAG ISLAND    MOSUNNY  -17 -24  70 NW5       30.50F WCI -29
WARROAD        SUNNY    -15 -22  70 CALM      30.51S
ROSEAU         SUNNY    -11 -20  64 CALM      30.52S
HALLOCK        SUNNY     -9 -20  59 NW5       30.57F WCI -21
THF RVR FALLS  SUNNY     -8 -11  84 N5        30.50F WCI -19
HALSTAD          N/A     -4 -15  61 N13         N/A  WCI -24
FOSSTON        SUNNY     -6 -11  77 NE7       30.47S WCI -20
BAUDETTE       SUNNY    -13 -20  71 NW5       30.48F WCI -25
WASKISH        SUNNY     -6 -15  65 CALM      30.46F
CROOKSTON      SUNNY     -8 -15  71 N9        30.56F WCI -25
$$
  *****  WEATHER ACROSS CENTRAL AND WEST MINNESOTA  *****

CITY           SKY/WX    TMP DP  RH WIND       PRES   REMARKS
BEMIDJI        MOSUNNY   -6 -15  65 N8        30.43F WCI -22
PARK RAPIDS    MOSUNNY   -1 -16  48 N10       30.40R WCI -17
WADENA         MOSUNNY    1  -9  60 N14       30.37S WCI -17
DETROIT LAKES  SUNNY      0 -13  55 NE7       30.42F WCI -13
MOORHEAD       SUNNY     -2 -11  65 N17       30.52R WCI -24
FERGUS FALLS   SUNNY      1 -17  42 N12         N/A  WCI -15
ELBOW LAKE     PTSUNNY    3  -8  61 N13       30.38S WCI -14
MORRIS MN      SUNNY      7  -2  66 N18       30.36S WCI -12
STAPLES        MOSUNNY    1  -8  66 N10       30.37S WCI -14
WHEATON        MOSUNNY   -2 -11  65 NW18G26   30.46R WCI -24
$$
  *****  WEATHER ELSEWHERE ACROSS MINNESOTA  *****

CITY           SKY/WX    TMP DP  RH WIND       PRES   REMARKS
DULUTH         MOSUNNY    3 -15  43 N12       30.32F WCI -13
INTRNTL FALLS  MOSUNNY   -8 -17  64 CALM      30.46F
ELY            SUNNY     -9 -18  64 NE5       30.39S WCI -21
CLOQUET        MOSUNNY    1  -9  60 N12       30.33S WCI -15
BRAINERD       SUNNY      4  -5  66 N10       30.36S WCI -11
HIBBING        MOSUNNY   -2 -18  46 NE7       30.39S WCI -15
ALEXANDRIA     MOSUNNY    5  -3  69 NE16      30.34R WCI -14
SAINT CLOUD    MOSUNNY    9  -1  64 N16       30.31R WCI  -8
MINNEAPOLIS    CLOUDY    13   1  59 NE21      30.25S WCI  -5
$$

  *****  WEATHER ACROSS SOUTH DAKOTA  *****

CITY           SKY/WX    TMP DP  RH WIND       PRES   REMARKS
SIOUX FALLS    LGT SNOW   6   1  80 N21G28    30.23R VSB 3/4 WCI -14
BROOKINGS      NOT AVBL
WATERTOWN      PTSUNNY    1  -5  75 N20       30.31R WCI -20
HURON          LGT SNOW   1  -6  72 N22       30.40R WCI -21
SISSETON         N/A     -2 -10  69 N20       30.44R WCI -24
ABERDEEN       CLOUDY     1 -10  60 N23       30.47R WCI -22
MITCHELL       LGT SNOW   2  -4  76 N22G32    30.38R VSB 1   WCI -20
PIERRE         LGT SNOW  -1  -7  75 N18       30.45R WCI -22
MOBRIDGE       MOSUNNY   -1 -12  59 N18       30.44S WCI -22
RAPID CITY     SUNNY      5   1  83 N23G29    30.35S WCI -17
$$

  *****  SOME WEATHER IN NEARBY STATES *****

CITY           SKY/WX    TMP DP  RH WIND       PRES   REMARKS
GLASGOW MT     MOSUNNY   -1  -6  79 SE10      30.39F WCI -17
GREAT FALLS MT SUNNY     11   8  88 S5        30.13F WCI   3
CHEYENNE WY    CLOUDY    16  10  77 N15       30.11R WCI   1
SCOTTSBLUFF NE CLOUDY    17   8  67 NW23G29   30.27R WCI  -1
OMAHA NE       SNOW      19  16  88 N30G38    30.02R VSB 1/2 WCI   0
DES MOINES IA  HVY SNOW  23  19  85 NE21G29   29.88R VSB 1/4 WCI   8
DAVENPORT IA   SNOW      26  23  88 NE22      29.81F VSB 1/2 WCI  12
CHICAGO IL     SNOW      28  27  96 NE21      29.86F VSB 1/2 WCI  15
EAU CLAIRE WI  CLOUDY    12   1  61 NE13      30.21F WCI  -3
LA CROSSE WI   LGT SNOW  17   9  70 N13       30.14R WCI   4
$$

  *****  SOME NATIONAL WEATHER *****

CITY           SKY/WX    TMP DP  RH WIND       PRES   REMARKS
LA GUARDIA NY  PTSUNNY   35  18  49 W5        30.18F
RALEIGH NC     PTSUNNY   51  22  31 SW10      30.23F
ATLANTA GA     CLOUDY    55  42  61 S7        30.14F
NEW ORLEANS LA PTSUNNY   71  62  73 S8        30.01F
OKLAHOMA CITY  PTSUNNY   37  27  67 N30G43    30.03R
ALBUQUERQUE NM MOSUNNY   41  31  67 N9        30.14R
SALT LAKE CITY MOSUNNY   36  29  75 S7        30.25R
LOS ANGELES CA MOSUNNY   59  52  77 E6        30.11R
BOISE ID       PTSUNNY   38  23  55 SE14      30.17S
SEATTLE WA     CLOUDY    43  41  93 SE3       30.03S
$$

*** WEATHER ACROSS MANITOBA...SASKATCHEWAN AND ONTARIO ***
                ***ONTARIO***

CITY           SKY/WX    TMP DP  RH WIND       PRES   REMARKS
GERALDTON      MOSUNNY  -11 -20  64 W3        30.36F
THUNDER BAY    MOSUNNY   -8 -18  59 W7        30.47F WCI -22
SIOUX LOOKOUT  MOSUNNY  -17 -22  76 W6        30.42F WCI -31
TORONTO        CLOUDY    10   1  67 N12       30.24F WCI  -4
BIG TROUT LK   SUNNY    -20 -27  69 W10       30.30F WCI -41
PICKLE LAKE    SUNNY    -15 -24  64 W7        30.34F WCI -31
DRYDEN         SUNNY    -15 -22  70 W7        30.42F WCI -31
KENORA         SUNNY    -17 -24  70 N7        30.46S WCI -33
$$
                *** MANITOBA***

CITY           SKY/WX    TMP DP  RH WIND       PRES   REMARKS
BRANDON        MOSUNNY  -15 -22  70 W8        30.51F WCI -32
DAUPHIN        SUNNY     -8 -20  54 W12       30.48F WCI -27
ISLAND LAKE    SUNNY    -18 -27  63 W8        30.37F WCI -37
PILOT MOUND      N/A    -13 -24  58 W6          N/A  WCI -27
THE PAS        MOSUNNY  -15 -22  70 NW3       30.39F
THOMPSON       CRYSTALS -18 -27  63 W8        30.31F WCI -37
WINNIPEG       SUNNY    -11 -20  64 W6        30.59F WCI -25
LYNN LAKE      MOSUNNY  -18 -24  76 W9        30.20F WCI -38
CHURCHILL      MOSUNNY  -24 -33  62 W13       30.22F WCI -48
GILLAM         MOSUNNY  -22 -31  63 W12       30.28F WCI -45
$$
                ***SASKATCHEWAN***

CITY           SKY/WX    TMP DP  RH WIND       PRES   REMARKS
ESTEVAN        SUNNY     -4 -11  71 SW5       30.44F WCI -15
KINDERSLEY     CRYSTALS  -4  -8  84 S6        30.21F WCI -16
LLOYDMINSTER   MOSUNNY    0  -4  85 SW10      30.16F WCI -17
PRINCE ALBERT  CLOUDY    -9 -15  77 CALM      30.31F
REGINA         MOSUNNY   -8 -13  77 SE8       30.37F WCI -23


USA.gov is the U.S. government's official web portal to all federal, state and local government web resources and services.